Weather reports worldwide

Advertisment
P11-B, Netherlands (6203): temperature & dewpoint: 11.10.2019 23:00:00 - 17.10.2019 23:00:00 (CEST)P11-B, Netherlands (6203): reduced air pressure: 11.10.2019 23:00:00 - 17.10.2019 23:00:00 (CEST)P11-B, Netherlands (6203): visibility: 11.10.2019 23:00:00 - 17.10.2019 23:00:00 (CEST)
Date & Time tt [°C] td [°C] ppp [hPa] vv [km]
17.10.2019 23:00:00 15,2 10,8 1005,1 10
17.10.2019 22:00:00 15,3 10,4 1005,4 10
17.10.2019 21:00:00 15,3 10,2 1005,7 10
17.10.2019 20:00:00 15,2 9,3 1006,0 10
17.10.2019 19:00:00 15,0 9,7 1006,2 10
17.10.2019 18:00:00 14,9 9,1 1006,3 10
17.10.2019 17:00:00 14,4 10,5 1006,6 10
17.10.2019 16:00:00 14,4 10,0 1006,9 10
17.10.2019 15:00:00 13,4 11,0 1007,0 10
17.10.2019 14:00:00 13,8 8,4 1007,5 10
17.10.2019 13:00:00 14,2 9,9 1007,7 10
17.10.2019 12:00:00 14,2 10,7 1007,9 10
17.10.2019 11:00:00 14,3 8,2 1008,1 10
17.10.2019 10:00:00 14,5 7,9 1008,0 10
17.10.2019 09:00:00 14,4 7,2 1008,0 10
17.10.2019 08:00:00 14,1 7,4 1007,5 10
17.10.2019 07:00:00 14,0 7,0 1007,0 10
17.10.2019 06:00:00 14,1 7,4 1006,7 10
17.10.2019 05:00:00 14,2 6,6 1006,5 10
17.10.2019 04:00:00 14,5 7,5 1006,1 10
17.10.2019 03:00:00 14,5 8,0 1005,8 10
17.10.2019 02:00:00 13,9 10,0 1005,3 10
17.10.2019 01:00:00 13,9 10,5 1005,0 10
17.10.2019 00:00:00 14,4 11,0 1004,7 10
16.10.2019 23:00:00 14,3 10,4 1004,6 10
16.10.2019 22:00:00 14,9 10,7 1004,1 10
16.10.2019 21:00:00 14,7 10,3 1003,9 10
16.10.2019 20:00:00 14,6 12,6 1003,5 10
16.10.2019 19:00:00 15,1 13,8 1003,3 10
16.10.2019 18:00:00 16,1 13,7 1002,2 10
16.10.2019 17:00:00 15,6 14,9 1002,0 10
16.10.2019 16:00:00 15,3 14,9 1002,0 4,6
16.10.2019 15:00:00 14,6 14,2 1002,1 3,0
16.10.2019 14:00:00 14,1 13,6 1002,6 4,6
16.10.2019 13:00:00 14,0 13,1 1003,0 10
16.10.2019 12:00:00 14,0 12,4 1003,2 10
16.10.2019 11:00:00 13,6 11,5 1003,8 10
16.10.2019 10:00:00 13,6 11,4 1004,5 10
16.10.2019 09:00:00 13,8 11,6 1004,7 10
16.10.2019 08:00:00 14,3 11,6 1005,0 10
16.10.2019 07:00:00 14,9 9,8 1005,2 10
16.10.2019 06:00:00 14,7 9,8 1005,3 10
16.10.2019 05:00:00 14,9 11,7 1005,4 10
16.10.2019 04:00:00 15,1 11,4 1006,0 10
16.10.2019 03:00:00 15,2 10,9 1006,1 10
16.10.2019 02:00:00 15,4 9,5 1006,2 10
16.10.2019 01:00:00 15,5 10,1 1006,3 10
16.10.2019 00:00:00 15,3 11,7 1006,1 10
15.10.2019 23:00:00 15,2 11,8 1006,2 10
15.10.2019 22:00:00 14,1 11,9 1006,4 10
15.10.2019 21:00:00 15,0 11,8 1006,0 10
15.10.2019 20:00:00 15,0 12,2 1005,7 10
15.10.2019 19:00:00 14,4 12,4 1005,1 10
15.10.2019 18:00:00 15,2 13,6 1004,5 10
15.10.2019 17:00:00 15,4 13,2 1004,4 10
15.10.2019 16:00:00 15,3 13,0 1004,2 10
15.10.2019 15:00:00 14,8 13,4 1004,5 10
15.10.2019 14:00:00 15,1 12,9 1004,5 10
15.10.2019 13:00:00 14,8 13,3 1004,7 10
15.10.2019 12:00:00 15,3 12,8 1004,4 10
15.10.2019 11:00:00 15,5 12,8 1003,9 10
15.10.2019 10:00:00 15,6 11,9 1003,5 10
15.10.2019 09:00:00 15,8 12,2 1002,9 10
15.10.2019 08:00:00 16,0 12,3 1002,5 10
15.10.2019 07:00:00 15,8 14,0 1002,0 10
15.10.2019 06:00:00 15,9 14,1 1001,8 10
15.10.2019 05:00:00 16,1 14,0 1001,6 10
15.10.2019 04:00:00 16,1 14,1 1001,4 10
15.10.2019 03:00:00 16,3 14,1 1001,9 10
15.10.2019 02:00:00 16,9 13,8 1002,2 10
15.10.2019 01:00:00 16,9 14,3 1002,1 10
15.10.2019 00:00:00 16,5 14,6 1001,7 10
14.10.2019 23:00:00 17,3 15,5 1002,9 7
14.10.2019 22:00:00 16,9 15,5 1003,5 10
14.10.2019 21:00:00 16,5 15,3 1004,1 9
14.10.2019 20:00:00 15,9 14,9 1003,8 8
14.10.2019 19:00:00 15,3 14,2 1004,4 9
14.10.2019 18:00:00 14,9 13,5 1004,9 10
14.10.2019 17:00:00 14,3 12,8 1005,9 10
14.10.2019 16:00:00 14,2 10,9 1006,6 10
14.10.2019 15:00:00 14,3 11,1 1007,6 10
14.10.2019 14:00:00 12,8 9,8 1009,9 10
14.10.2019 13:00:00 12,5 8,3 1010,8 10
14.10.2019 12:00:00 14,3 10,1 1011,9 10
14.10.2019 11:00:00 14,6 9,6 1011,8 10
14.10.2019 10:00:00 14,5 9,4 1012,1 10
14.10.2019 09:00:00 14,4 9,1 1012,1 10
14.10.2019 08:00:00 14,3 9,0 1012,2 10
14.10.2019 07:00:00 14,3 9,0 1012,3 10
14.10.2019 06:00:00 14,3 8,4 1012,0 10
14.10.2019 05:00:00 14,2 8,9 1011,7 10
14.10.2019 04:00:00 14,3 8,6 1011,6 10
14.10.2019 03:00:00 14,2 8,7 1011,4 10
14.10.2019 02:00:00 14,4 9,0 1011,0 10
14.10.2019 01:00:00 14,6 9,0 1010,3 10
14.10.2019 00:00:00 15,0 10,0 1009,3 10
13.10.2019 23:00:00 15,7 10,7 1008,3 10
13.10.2019 22:00:00 16,2 11,2 1007,0 10
13.10.2019 21:00:00 16,5 12,5 1005,9 10
13.10.2019 20:00:00 16,5 13,1 1005,0 10
13.10.2019 19:00:00 16,9 13,1 1003,7 10
13.10.2019 18:00:00 17,3 14,9 1002,4 10
13.10.2019 17:00:00 17,8 15,2 1001,8 10
13.10.2019 16:00:00 17,3 16,0 1001,9 10
13.10.2019 15:00:00 17,3 15,7 1002,1 10
13.10.2019 14:00:00 16,9 15,6 1002,2 10
13.10.2019 13:00:00 16,7 15,4 1002,4 10
13.10.2019 12:00:00 16,5 15,3 1003,0 8
13.10.2019 11:00:00 16,3 14,8 1003,8 10
13.10.2019 10:00:00 15,9 14,6 1003,7 8
13.10.2019 09:00:00 16,0 14,7 1003,8 10
13.10.2019 08:00:00 16,1 14,6 1004,4 9
13.10.2019 07:00:00 15,4 14,2 1004,8 5
13.10.2019 06:00:00 14,5 13,8 1005,7 3,5
13.10.2019 05:00:00 14,0 13,0 1006,2 7
13.10.2019 04:00:00 13,7 12,4 1006,7 8
13.10.2019 03:00:00 13,5 11,9 1007,8 10
13.10.2019 02:00:00 13,0 12,1 1007,9 7
13.10.2019 01:00:00 13,0 12,2 1008,6 5
13.10.2019 00:00:00 12,9 12,2 1009,2 5
12.10.2019 23:00:00 12,7 11,9 1009,5 5
12.10.2019 22:00:00 12,6 11,5 1009,5 10
12.10.2019 21:00:00 12,6 11,1 1009,2 10
12.10.2019 20:00:00 12,6 10,7 1009,3 10
12.10.2019 19:00:00 12,8 10,3 1009,1 10
12.10.2019 18:00:00 13,0 11,1 1009,2 10
12.10.2019 17:00:00 13,1 10,2 1009,2 10
12.10.2019 16:00:00 13,2 10,5 1009,3 10
12.10.2019 15:00:00 13,0 10,2 1009,6 10
12.10.2019 14:00:00 12,9 11,4 1009,7 10
12.10.2019 13:00:00 13,6 9,5 1009,2 10
12.10.2019 12:00:00 14,4 9,5 1008,6 10
12.10.2019 11:00:00 14,3 9,9 1008,1 10
12.10.2019 10:00:00 14,2 9,6 1007,5 10
12.10.2019 09:00:00 13,7 10,1 1007,0 10
12.10.2019 08:00:00 13,0 9,6 1006,4 10
12.10.2019 07:00:00 12,9 9,6 1006,5 10
12.10.2019 06:00:00 12,2 9,4 1006,1 10
12.10.2019 05:00:00 11,5 10,6 1005,8 4,7
12.10.2019 04:00:00 12,3 10,8 1005,9 6
12.10.2019 03:00:00 13,2 10,1 1005,7 10
12.10.2019 02:00:00 13,9 10,7 1005,2 10
12.10.2019 01:00:00 15,1 12,5 1005,2 10
12.10.2019 00:00:00 14,0 13,6 1004,9 1,8
11.10.2019 23:00:00 16,3 14,9 1004,1 10

tt = temperature
td = dewpoint
ppp = reduced air pressure
vv = visibility

Next stations